User: anonymous   Login
Location: Oshawa
(43.9000°N, 78.8670°W)
Time: 08:20:03
(UTC-04:00)
Language:

Cosmos 839 Rocket - Orbit

View from above orbital plane
View from above orbital plane
View from above satellite
View from above satellite

Ground track
Ground track

The orbit data is extracted from the following two-line orbital elements,

1  9013U 76067B   16181.71917340  .00000056  00000-0  18533-3 0  9992
2  9013  65.8668 330.6772 0718582 211.7473 143.8639 12.35324016803112
Epoch (UTC): 29 June 2016 17:15:36
Eccentricity: 0.0718582
inclination: 65.8668°
perigee height: 958 km
apogee height: 2094 km
right ascension of ascending node: 330.6772°
argument of perigee: 211.7473°
revolutions per day: 12.35324016
mean anomaly at epoch: 143.8639°
orbit number at epoch: 80311

The dashed part of the orbit path shows where the satellite is in the earth's shadow,  

DLR